Location: Newark
(48.5667°N, 7.8167°E)
Time: 02:01:11
(UTC+00:00)

CZ-6 R/B - Pass Details

Date: 06 December 2021
Orbit: 385 x 499 km, 97.7° (Epoch: 27 January)

Event Time Altitude Azimuth Distance (km) Brightness Sun altitude
Exits shadow 17:33:33 - 352° (N) 2,086 ? -18.9°
Reaches altitude 10° 17:35:32 10° 331° (NNW) 1,447 ? -19.2°
Maximum altitude 17:37:18 14° 297° (WNW) 1,199 ? -19.5°
Drops below altitude 10° 17:39:01 10° 261° (W) 1,424 ? -19.8°
Sets 17:41:35 0° 236° (SW) 2,266 ? -20.2°
